Weather History for KJFK - October, 2013

Change the Weather History Date:

Monday, October 7, 2013

  Actual Average Record
Temperature  
Mean Temperature 70 °F 60 °F  
Max Temperature 78 °F 68 °F 83 °F (2007)
Min Temperature 61 °F 53 °F 39 °F (1984)
Degree Days  
Heating Degree Days 0 6  
Month to date heating degree days 0 34  
Since 1 July heating degree days 45 73  
Cooling Degree Days 5 1  
Month to date cooling degree days 35 7  
Year to date cooling degree days 1107 998  
Growing Degree Days 20 (Base 50)    
Moisture  
Dew Point 64 °F    
Average Humidity 79    
Maximum Humidity 97    
Minimum Humidity 60    
Precipitation  
Precipitation 0.26 in 0.13 in 2.81 in (1972)
Month to date precipitation 0.27 0.86  
Year to date precipitation 28.38 33.32  
Snow  
Snow 0.00 in 0.00 in - ()
Month to date snowfall 0.0 0.0  
Since 1 July snowfall 0.0 0.0  
Snow Depth 0.00 in    
Sea Level Pressure  
Sea Level Pressure 29.93 in    
Wind  
Wind Speed 17 mph (South)    
Max Wind Speed 33 mph    
Max Gust Speed 41 mph    
Visibility 8 miles    
Events Rain    
T = Trace of Precipitation, MM = Missing Value Source: NWS Daily Summary

Daily Weather History Graph

Daily Weather History Graph

Search for Another Location

Airport or City:

Trip Planner

Search our weather history database for the weather conditions in past years. The results will help you decide how hot, cold, wet, or windy it might be!

Date:

Astronomy

Oct. 07, 2013 Rise Set
Actual Time 6:57 AM EDT 6:27 PM EDT
Civil Twilight 6:30 AM EDT 6:54 PM EDT
Nautical Twilight 5:58 AM EDT 7:25 PM EDT
Astronomical Twilight 5:27 AM EDT 7:57 PM EDT
Moon 9:45 AM EDT (10/7) 8:08 PM EDT (10/7)
Length of Visible Light 12h 23m
Length of Day
11h 29m
Waxing Crescent, 8% of the Moon is Illuminated
Oct 7
Waxing Crescent
Oct 11
First Quarter
Oct 18
Full
Oct 26
Last Quarter
Nov 3
New

Hourly Weather History & Observations

Time (EDT) Temp. Dew Point Humidity Pressure Visibility Wind Dir Wind Speed Gust Speed Precip Events Conditions
12:51 AM 69.1 °F 66.9 °F 93% 30.04 in 6.0 mi SSE 8.1 mph - N/A   Overcast
1:14 AM 69.8 °F 66.2 °F 88% 30.03 in 6.0 mi SSE 9.2 mph - N/A   Overcast
1:35 AM 69.8 °F 66.2 °F 88% 30.03 in 1.5 mi SE 9.2 mph - N/A   Overcast
1:51 AM 69.1 °F 66.9 °F 93% 30.03 in 1.5 mi SE 9.2 mph - N/A   Overcast
2:51 AM 68.0 °F 66.9 °F 96% 30.01 in 1.0 mi SSE 9.2 mph - N/A   Overcast
3:12 AM 68.0 °F 66.2 °F 94% 30.00 in 2.5 mi SSE 10.4 mph - N/A   Mostly Cloudy
3:44 AM 68.0 °F 66.2 °F 94% 29.99 in 6.0 mi SSE 10.4 mph - N/A   Mostly Cloudy
3:51 AM 68.0 °F 66.9 °F 96% 29.99 in 7.0 mi SSE 10.4 mph - N/A   Mostly Cloudy
4:51 AM 68.0 °F 66.0 °F 93% 29.98 in 10.0 mi SSE 10.4 mph - N/A   Mostly Cloudy
5:51 AM 69.1 °F 66.0 °F 90% 29.97 in 10.0 mi SSE 12.7 mph - N/A   Mostly Cloudy
6:31 AM 69.8 °F 66.2 °F 88% 29.97 in 9.0 mi SE 11.5 mph - N/A   Mostly Cloudy
6:51 AM 69.1 °F 66.9 °F 93% 29.96 in 9.0 mi SSE 12.7 mph - N/A   Mostly Cloudy
7:51 AM 70.0 °F 68.0 °F 93% 29.96 in 9.0 mi SSE 12.7 mph - N/A   Mostly Cloudy
8:51 AM 71.1 °F 68.0 °F 90% 29.94 in 10.0 mi SSE 15.0 mph - N/A   Mostly Cloudy
9:51 AM 73.9 °F 66.9 °F 79% 29.93 in 10.0 mi SSE 18.4 mph 26.5 mph N/A   Mostly Cloudy
10:16 AM 73.4 °F 66.2 °F 78% 29.92 in 10.0 mi SSE 18.4 mph 26.5 mph N/A   Mostly Cloudy
10:51 AM 73.0 °F 66.9 °F 81% 29.91 in 10.0 mi SSE 18.4 mph 29.9 mph N/A   Mostly Cloudy
11:51 AM 73.9 °F 68.0 °F 82% 29.89 in 10.0 mi South 18.4 mph 29.9 mph 0.00 in   Mostly Cloudy
12:51 PM 75.9 °F 66.9 °F 74% 29.85 in 10.0 mi South 28.8 mph 38.0 mph N/A   Mostly Cloudy
1:51 PM 73.9 °F 66.9 °F 79% 29.83 in 10.0 mi South 25.3 mph 31.1 mph N/A   Mostly Cloudy
2:51 PM 73.9 °F 66.9 °F 79% 29.82 in 10.0 mi South 29.9 mph 39.1 mph N/A   Mostly Cloudy
3:51 PM 73.9 °F 66.9 °F 79% 29.81 in 10.0 mi South 26.5 mph 40.3 mph N/A   Mostly Cloudy
4:32 PM 69.8 °F 64.4 °F 83% 29.85 in 6.0 mi WSW 19.6 mph 27.6 mph 0.00 in Rain Rain
4:45 PM 68.0 °F 64.4 °F 88% 29.87 in 1.5 mi WSW 26.5 mph 34.5 mph 0.10 in Rain Heavy Rain
4:51 PM 66.9 °F 64.0 °F 90% 29.87 in 1.5 mi SW 20.7 mph 32.2 mph 0.17 in Rain Heavy Rain
5:05 PM 66.2 °F 64.4 °F 94% 29.86 in 1.5 mi SW 16.1 mph - 0.04 in Rain Light Rain
5:13 PM 68.0 °F 64.4 °F 88% 29.86 in 7.0 mi SSW 16.1 mph - 0.06 in Rain Light Rain
5:51 PM 68.0 °F 64.9 °F 90% 29.89 in 10.0 mi SW 17.3 mph - 0.09 in Rain Light Rain
6:01 PM 68.0 °F 64.4 °F 88% 29.89 in 10.0 mi SW 13.8 mph - 0.00 in Rain Light Rain
6:47 PM 64.4 °F 57.2 °F 77% 29.91 in 10.0 mi West 16.1 mph 26.5 mph 0.00 in Rain Light Rain
6:51 PM 64.0 °F 57.0 °F 78% 29.91 in 10.0 mi West 16.1 mph 25.3 mph 0.00 in Rain Light Rain
7:33 PM 64.4 °F 55.4 °F 73% 29.92 in 10.0 mi West 12.7 mph - 0.00 in   Overcast
7:51 PM 64.0 °F 54.0 °F 70% 29.92 in 10.0 mi WNW 12.7 mph 18.4 mph 0.00 in   Overcast
8:51 PM 63.0 °F 53.1 °F 70% 29.94 in 10.0 mi WNW 12.7 mph - N/A   Overcast
9:51 PM 64.0 °F 52.0 °F 65% 29.95 in 10.0 mi WNW 9.2 mph - N/A   Overcast
10:51 PM 63.0 °F 51.1 °F 65% 29.97 in 10.0 mi NNW 9.2 mph - N/A   Overcast
11:51 PM 62.1 °F 48.0 °F 60% 29.99 in 10.0 mi WNW 15.0 mph - N/A   Mostly Cloudy